Regional Weather Roundup
Issued by NWS Upton, NY

Current Version | Previous Version | Text Only | Print | Product List | Glossary On
Versions: 1 2 3 4 5 6 7 8 9 10 11 12 13 14 15 16 17 18 19 20 21 22 23 24 25 26 27 28 29 30 31 32 33 34 35 36 37 38 39 40 41 42 43 44 45 46 47 48 49 50
000 ASUS41 KOKX 012004 RWROKX REGIONAL WEATHER ROUNDUP NATIONAL WEATHER SERVICE NEW YORK NY 400 PM EDT SAT AUG 01 2015 NOTE: "FAIR" INDICATES FEW OR NO CLOUDS BELOW 12,000 FEET WITH NO SIGNIFICANT WEATHER AND/OR OBSTRUCTIONS TO VISIBILITY. NYZ071-072-176-178-NJZ106-104-012100- NEW YORK CITY METRO AREA CITY SKY/WX TMP DP RH WIND PRES REMARKS CENTRAL PARK MOSUNNY 87 57 35 W8 29.79F LAGUARDIA APRT PTSUNNY 89 52 28 W12G23 29.76F KENNEDY INTL MOSUNNY 90 57 32 SW22 29.77F NEWARK/LIBERTY MOSUNNY 90 55 30 W16G23 29.77S BRNX BOT. GARD N/A 86 55 35 W7 29.79S TETERBORO MOSUNNY 89 54 30 W15 29.75F $$ NYZ177-179-078>081-012100- LONG ISLAND NEW YORK CITY SKY/WX TMP DP RH WIND PRES REMARKS FARMINGDALE SUNNY 90 56 31 SW18G25 29.77F ISLIP PTSUNNY 89 58 34 SW21G29 29.74F SHIRLEY SUNNY 89 59 36 SW13G25 29.76F WESTHAMPTON SUNNY 87 63 44 SW21G29 29.77F MONTAUK POINT N/A 83 69 62 SW7 29.77F $$ NYZ052-065-067-012100- HUDSON VALLEY CITY SKY/WX TMP DP RH WIND PRES REMARKS WHITE PLAINS MOSUNNY 85 56 37 W8 29.77F NEWBURGH MOSUNNY 86 55 35 W17G26 29.79F MONTGOMERY MOSUNNY 87 57 35 W12G18 29.78F POUGHKEEPSIE MOSUNNY 88 54 31 W16G25 29.76R ALBANY MOSUNNY 85 55 35 W14G21 29.76F $$ NJZ001-105-106-008-010-013-015-019>022-104-012100- NEW JERSEY CITY SKY/WX TMP DP RH WIND PRES REMARKS NEWARK/LIBERTY MOSUNNY 90 55 30 W16G23 29.77S TETERBORO MOSUNNY 89 54 30 W15 29.75F CALDWELL SUNNY 87 53 31 W10G21 29.78S MORRISTOWN PTSUNNY 90 55 31 W13G20 29.79S SOMERVILLE PTSUNNY 88 56 33 VRB6 29.77F SUSSEX CLOUDY 80 57 45 VRB5 29.81R ANDOVER N/A 83 60 45 N8 29.82S TRENTON MOSUNNY 89 54 30 W10 29.80F MILLVILLE SUNNY 90 57 32 W12G21 29.83F ATLANTIC CITY SUNNY 90 59 35 W10G18 29.82F WRIGHTSTOWN NOT AVBL TOMS RIVER N/A 90 55 31 SW14G20 29.80F BELMAR MOSUNNY 88 57 35 W14G23 29.80S $$ PAZ047>061-062-071-012100- EASTERN PENNSYLVANIA CITY SKY/WX TMP DP RH WIND PRES REMARKS PHILADELPHIA MOSUNNY 88 57 34 W14 29.83S ALLENTOWN MOSUNNY 83 58 42 W8 29.81F SCRANTON CLOUDY 80 57 45 NW6 29.84F $$ CTZ002-004>006-009-010-012-RIZ004-006-007-MAZ004-011-015-012100- SOUTHERN NEW ENGLAND IN CT CITY SKY/WX TMP DP RH WIND PRES REMARKS BRADLEY INTL PTSUNNY 78 61 55 NW7 29.76F HARTFORD MOSUNNY 82 58 43 NW10 29.75R DANBURY MOSUNNY 82 62 50 SW7 29.78F WTRBRY/OXFORD PTSUNNY 81 59 47 NW9G17 29.80S BRIDGEPORT MOSUNNY 88 61 40 SW8 29.75F MERIDEN PTSUNNY 87 55 33 W9G16 29.74F NEW HAVEN PTSUNNY 85 62 46 VRB7G17 29.75F CHESTER FAIR 84 61 45 W9 29.77S GROTON SUNNY 85 61 44 W10G20 29.73F WILLIMANTIC PTSUNNY 84 57 39 NW14G26 29.75R IN RI CITY SKY/WX TMP DP RH WIND PRES REMARKS PROVIDENCE MOSUNNY 89 58 34 W18G26 29.72F BLOCK ISLAND N/A 79 70 73 SW17 29.77F WESTERLY SUNNY 83 65 54 S12 29.75F IN MA CITY SKY/WX TMP DP RH WIND PRES REMARKS BOSTON LGT RAIN 82 59 45 NW25G35 29.72R WORCESTER PTSUNNY 72 62 71 W8 29.79S WESTFIELD PTSUNNY 80 61 52 SW7 29.76F PROVINCETOWN PTSUNNY 81 63 54 SW9 29.73F NANTUCKET SUNNY 78 70 76 SW15 29.77F $$ ANZ330-335-338-340-345-350-353-355-012100- COASTAL MARINE OBSERVATIONS STATION/POSITION TIME SKY/WX TEMP WIND PRES VSBY WAVE AIR SEA DIR/SP/G HT/PER (UTC) (F) (DEG/KT/KT) (MB) (MI) (FT/S) NY HARB ENTRANCE 1850 80 77 270/ 8/ 10 1008.7 3/10 4S FIRE IS NOT AVBL 20S FIRE ISLAND 1850 78 76 220/ 12/ 14 1008.9 4/ 9 GREAT SOUTH BAY 1900 81 81 250/ 16/ 19 N/A 23SW MTP 1950 76 74 230/ 16/ 19 1007.6 5/ 8 HUDSON CANYON NOT AVBL KINGS POINT 1900 84 71 300/ 11/ 13 1007.5 EXECUTION ROCKS 1900 81 290/ 6/ 10 N/A CENTRAL LI SOUND NOT AVBL EASTERN LI SOUND 1900 73 68 250/ 8/ 10 N/A ROBBINS REEF 1900 85 240/ 21/ 25 1007.0 $$ >>>>>>>>>>>>>>>>>>>>>>>>>>>> KEY <<<<<<<<<<<<<<<<<<<<<<<<<<< > < > SKY/WX - SKY CONDITION/PRESENT WEATHER < > TMP - TEMPERATURE IN FAHRENHEIT < > DP - DEWPOINT IN FAHRENHEIT < > RH - RELATIVE HUMIDITY IN PERCENT < > WIND - DIRECTION AND SPEED IN MPH < > PRES - MEAN SEA LEVEL PRESSURE IN INCHES OF HG < > WCI - WIND CHILL INDEX < > VSB - VISIBILITY IN MILES < > HX - HEAT INDEX < > TC - TEMPERATURE IN CELSIUS < > VRB - VARIABLE WIND DIRECTION < > < >>>>>>>>>>>>>>>>>>>>>>>>>>>> KEY <<<<<<<<<<<<<<<<<<<<<<<<<<<

USA.gov is the U.S. government's official web portal to all federal, state and local government web resources and services.